Location: Eaton Estates
(41.3089°N, 82.0057°W)
Time: 06:50:21
(UTC+00:00)

BlueWalker 3 - Visible Passes

Search period start: 04 December 2023 00:00
Search period end: 14 December 2023 00:00
Orbit: 489 x 503 km, 53.2° (Epoch: 03 December)

Date Brightness Start Highest point End Pass type
(mag) Time Alt. Az. Time Alt. Az. Time Alt. Az.
04 Dec 4.9 09:37:50 15° E 09:37:50 15° E 09:38:42 10° E visible
04 Dec 2.2 11:12:24 31° WNW 11:13:53 51° SW 11:17:35 10° SSE visible
05 Dec 2.1 10:51:00 51° WSW 10:51:13 51° SW 10:54:54 10° SSE visible
06 Dec 3.0 10:29:39 37° S 10:29:39 37° S 10:32:14 10° SSE visible
07 Dec 4.2 10:08:22 19° SSE 10:08:22 19° SSE 10:09:32 10° SSE visible
11 Dec 4.5 23:55:19 10° SSE 23:55:33 11° SSE 23:55:33 11° SSE visible
12 Dec 4.0 23:32:35 10° SSE 23:34:13 15° SE 23:34:13 15° SE visible
13 Dec 3.9 23:09:49 10° SSE 23:12:02 15° SE 23:12:47 14° ESE visible
